Starlink 35977

operational
NORAD ID: 66604 Int'l Des: 2025-270 Owner: SPXS Country: US Constellation: starlink
LEOCIRCULAR

About Starlink 35977

Description loading...

Live Position

Loading 3D Globe...

Upcoming Passes

Altitude History

Altitude vs Time

uPlot chart will show altitude changes over time

Two-Line Element Set

1 66604U 25270S 26062.43311927 .00033264 00000-0 12120-2 0 9990
2 66604 43.0010 91.1053 0001920 257.1340 102.9298 15.27602334 16758
Epoch: Mar 3, 2026 • Age: 32 hours

Current Status

Altitude 494.7 km
Velocity 7.62 km/s
Sub-Earth Point -42.80°S, 65.76°E
Launch Date Nov 22, 2025
Age 0.2 years
Type internet

Technical Details

Classification Payload
Mass 575.00 kg
Dry Mass 530.00 kg
Total Mass 575.00 kg
Length 0.30 m
Diameter 4.10 m
Span 29.00 m
Shape Box + pan
Manufacturer SPXS
Bus Type Starlink V2MO
Phase Status In Orbit
Owner/State SPXS/US

Large Constellations

Loading constellations...